Location: Canet
(43.3261°N, 5.3723°E)
Time: 19:16:32
(UTC+00:00)

Cosmos 1340 - Pass Details

Date: 24 January 2021
Orbit: 501 x 503 km, 81.2° (Epoch: 07 March)

Event Time Altitude Azimuth Distance (km) Brightness Sun altitude
Rises 17:45:49 0° 172° (S) 2,581 6.3 -12.1°
Reaches altitude 10° 17:48:01 10° 164° (SSE) 1,702 5.3 -12.4°
Maximum altitude 17:51:30 39° 95° (E) 764 3.1 -13.1°
Enters shadow 17:54:45 12° 27° (NNE) 1,607 4.8 -13.6°
